Location: Grand Rapids
(42.9630°N, 85.6680°W)
Time: 03:15:32
(UTC-04:00)

A-11 Canister half - Pass Details

Date: 06 June 2024
Orbit: 1524 x 1684 km, 47.3° (Epoch: 21 June)

Event Time Altitude Azimuth Distance (km) Brightness Sun altitude
Rises 19:14:20 0° 242° (WSW) 4,672 12.3 20.1°
Reaches altitude 10° 19:17:22 10° 242° (WSW) 3,686 11.9 19.6°
Maximum altitude 19:26:40 86° 154° (SSE) 1,535 9.3 17.9°
Drops below altitude 10° 19:36:06 10° 68° (ENE) 3,736 10.6 16.3°
Sets 19:39:11 0° 68° (ENE) 4,738 11.1 15.7°
